Location: Dalton
(34.7700°N, 84.9700°W)
Time: 20:53:33
(UTC-04:00)

Vanguard 2 Rocket - All Passes

Search period start: 17 July 2018 00:00
Search period end: 27 July 2018 00:00
Orbit: 554 x 3327 km, 32.9° (Epoch: 17 July)

Date Brightness Start Highest point End Pass type
(mag) Time Alt. Az. Time Alt. Az. Time Alt. Az.
17 Jul - 02:38:31 10° S 02:42:13 18° SE 02:47:09 10° E visible
17 Jul - 04:47:55 10° WSW 04:54:28 63° SSE 05:06:19 10° E visible
17 Jul - 07:00:01 10° W 07:09:17 82° S 07:25:57 10° E daylight
17 Jul - 09:13:19 10° W 09:25:51 66° SSW 09:45:11 10° ESE daylight
17 Jul - 11:28:41 10° W 11:42:59 37° SW 12:00:26 10° SSE daylight
17 Jul - 13:53:38 10° WSW 13:59:27 12° SW 14:05:21 10° SSW daylight
18 Jul - 03:49:29 10° SW 03:54:58 46° SSE 04:04:13 10° E visible
18 Jul - 06:01:00 10° W 06:08:47 81° S 06:23:10 10° E visible
18 Jul - 08:13:44 10° W 08:24:34 73° SSW 08:42:51 10° ESE daylight
18 Jul - 10:27:57 10° W 10:41:27 46° SSW 10:59:52 10° SE daylight
18 Jul - 12:47:07 10° W 12:58:13 19° SW 13:10:17 10° S daylight
19 Jul - 02:51:28 10° SSW 02:55:52 29° SE 03:02:24 10° E visible
19 Jul - 05:02:09 10° WSW 05:08:42 74° SSE 05:20:42 10° E visible
19 Jul - 07:14:28 10° W 07:23:41 78° S 07:40:13 10° ESE daylight
19 Jul - 09:27:51 10° W 09:40:01 54° SSW 09:58:32 10° SE daylight
19 Jul - 11:44:19 10° W 11:56:52 27° SW 12:11:53 10° S daylight
20 Jul - 01:54:15 10° S 01:57:01 15° SE 02:00:24 10° ESE visible
20 Jul - 04:03:32 10° WSW 04:09:02 60° SSE 04:18:40 10° E visible
20 Jul - 06:15:25 10° W 06:23:10 81° S 06:37:32 10° E daylight
20 Jul - 08:28:12 10° W 08:38:51 62° SSW 08:56:36 10° SE daylight
20 Jul - 10:43:01 10° W 10:55:29 34° SSW 11:12:04 10° SSE daylight
20 Jul - 13:08:51 10° SW 13:12:11 11° SW 13:15:37 10° SSW daylight
21 Jul - 03:05:08 10° SW 03:09:46 42° SSE 03:17:06 10° E visible
21 Jul - 05:16:32 10° W 05:23:04 80° S 05:35:04 10° E visible
21 Jul - 07:28:54 10° W 07:38:02 69° SSW 07:54:15 10° ESE daylight
21 Jul - 09:42:36 10° W 09:54:12 42° SSW 10:11:18 10° SE daylight
21 Jul - 12:01:28 10° WSW 12:10:52 17° SW 12:21:39 10° S daylight
22 Jul - 02:07:05 10° SSW 02:10:47 25° SSE 02:15:49 10° E visible
22 Jul - 04:17:48 10° WSW 04:23:19 73° S 04:33:05 10° E visible
22 Jul - 06:29:51 10° W 06:37:34 75° S 06:51:46 10° ESE daylight
22 Jul - 08:42:48 10° W 08:53:07 50° SSW 09:09:52 10° SE daylight
22 Jul - 10:58:51 10° W 11:09:36 24° SW 11:23:12 10° S daylight
23 Jul - 01:09:54 10° S 01:11:57 13° SE 01:14:14 10° ESE night (unlit)
23 Jul - 03:19:12 10° WSW 03:23:54 58° SSE 03:31:35 10° E visible
23 Jul - 05:30:57 10° W 05:37:28 79° S 05:49:26 10° E visible
23 Jul - 07:43:25 10° W 07:52:21 57° SSW 08:07:57 10° SE daylight
23 Jul - 09:57:49 10° W 10:08:25 31° SSW 10:23:17 10° SSE daylight
24 Jul - 02:20:46 10° SW 02:24:47 39° SSE 02:30:33 10° E visible
24 Jul - 04:32:11 10° W 04:37:42 78° S 04:47:27 10° E visible
24 Jul - 06:44:18 10° W 06:51:56 65° SSW 07:05:48 10° ESE daylight
24 Jul - 08:57:39 10° W 09:07:25 37° SSW 09:22:29 10° SSE daylight
24 Jul - 11:16:40 10° WSW 11:23:51 14° SW 11:32:10 10° S daylight
25 Jul - 01:22:36 10° SSW 01:25:51 23° SSE 01:29:49 10° E night (unlit)
25 Jul - 03:33:29 10° WSW 03:38:13 71° S 03:46:00 10° E visible
25 Jul - 05:45:24 10° W 05:51:52 71° S 06:03:41 10° ESE visible
25 Jul - 07:58:03 10° W 08:06:41 44° SSW 08:21:08 10° SE daylight
25 Jul - 10:14:00 10° WSW 10:22:43 20° SSW 10:34:01 10° S daylight
26 Jul - 00:25:09 10° S 00:26:56 13° SSE 00:28:49 10° ESE night (unlit)
26 Jul - 02:34:51 10° WSW 02:38:58 56° SSE 02:45:04 10° E visible
26 Jul - 04:46:37 10° W 04:52:07 76° S 05:01:49 10° E visible
26 Jul - 06:58:50 10° W 07:06:19 51° SSW 07:19:26 10° SE daylight
26 Jul - 09:13:04 10° W 09:21:46 26° SSW 09:34:14 10° SSE daylight
